,,,PA_Meas_PMT16A,,PR_Meas_QMR101_102,,RH_Meas_QMH101,,SR_Meas_QMS101,,TA_Meas_QMH101,,GenWind,,GenWind,
date,time,status,PA,status,PR,status,RH,status,SR,status,TA,status,DirAvg,status,SpdAvg,
2012-05-13, 00:00:04,VALID,1004.57,VALID,0,VALID,91.8136,VALID,0,VALID,24.2681,VALID,16,VALID,0.445703,
2012-05-13, 00:01:04,VALID,1004.56,VALID,0,VALID,91.8594,VALID,0,VALID,24.1884,VALID,16,VALID,0.288672,
2012-05-13, 00:02:04,VALID,1004.53,VALID,0,VALID,92.2484,VALID,0,VALID,24.1689,VALID,16,VALID,0.332812,
2012-05-13, 00:03:04,VALID,1004.51,VALID,0,VALID,92.3705,VALID,0,VALID,24.1494,VALID,16,VALID,0,
2012-05-13, 00:04:04,VALID,1004.53,VALID,0,VALID,92.2789,VALID,0,VALID,24.1105,VALID,16,VALID,0.450391,
2012-05-13, 00:05:04,VALID,1004.49,VALID,0,VALID,92.34,VALID,0,VALID,24.1123,VALID,16,VALID,0.288672,
2012-05-13, 00:06:04,VALID,1004.52,VALID,0,VALID,92.6528,VALID,0,VALID,24.0716,VALID,16,VALID,0.358203,
2012-05-13, 00:07:04,VALID,1004.52,VALID,0,VALID,92.7824,VALID,0,VALID,24.0734,VALID,16,VALID,0.273438,
2012-05-13, 00:08:04,VALID,1004.53,VALID,0,VALID,92.9274,VALID,0,VALID,24.0521,VALID,16,VALID,0.360156,
2012-05-13, 00:09:04,VALID,1004.52,VALID,0,VALID,92.8435,VALID,0,VALID,24.0326,VALID,16,VALID,0.0128906,
2012-05-13, 00:10:04,VALID,1004.51,VALID,0,VALID,92.8435,VALID,0,VALID,23.9937,VALID,16,VALID,0,
2012-05-13, 00:11:04,VALID,1004.54,VALID,0,VALID,92.9732,VALID,0,VALID,23.9742,VALID,16,VALID,0,
2012-05-13, 00:12:04,VALID,1004.52,VALID,0,VALID,93.1563,VALID,0,VALID,23.9937,VALID,16,VALID,0,
2012-05-13, 00:13:04,VALID,1004.52,VALID,0,VALID,93.2478,VALID,0,VALID,23.9742,VALID,16,VALID,0,
2012-05-13, 00:14:04,VALID,1004.52,VALID,0,VALID,93.4156,VALID,0,VALID,24.015,VALID,16,VALID,0,
2012-05-13, 00:15:04,VALID,1004.51,VALID,0,VALID,93.3775,VALID,0,VALID,23.9937,VALID,16,VALID,0,
2012-05-13, 00:16:04,VALID,1004.52,VALID,0,VALID,93.347,VALID,0,VALID,23.9937,VALID,16,VALID,0,
2012-05-13, 00:17:04,VALID,1004.47,VALID,0,VALID,93.4385,VALID,0,VALID,23.9742,VALID,16,VALID,0,
2012-05-13, 00:18:04,VALID,1004.47,VALID,0,VALID,93.5072,VALID,0,VALID,23.9955,VALID,16,VALID,0,
2012-05-13, 00:19:04,VALID,1004.47,VALID,0,VALID,93.5072,VALID,0.0815089,VALID,23.9742,VALID,16,VALID,0,
2012-05-13, 00:20:04,VALID,1004.44,VALID,0,VALID,93.5606,VALID,0,VALID,23.9742,VALID,16,VALID,0,
2012-05-13, 00:21:04,VALID,1004.42,VALID,0,VALID,93.6216,VALID,0,VALID,23.9742,VALID,16,VALID,0,
2012-05-13, 00:22:04,VALID,1004.4,VALID,0,VALID,93.675,VALID,0,VALID,23.9548,VALID,16,VALID,0,
2012-05-13, 00:23:04,VALID,1004.39,VALID,0,VALID,93.6216,VALID,0,VALID,23.9353,VALID,16,VALID,0,
2012-05-13, 00:24:04,VALID,1004.39,VALID,0,VALID,93.7208,VALID,0,VALID,23.9353,VALID,16,VALID,0,
2012-05-13, 00:25:04,VALID,1004.33,VALID,0,VALID,93.7895,VALID,0,VALID,23.9353,VALID,16,VALID,0,
2012-05-13, 00:26:04,VALID,1004.35,VALID,0,VALID,93.7818,VALID,0,VALID,23.9566,VALID,16,VALID,0,
2012-05-13, 00:27:04,VALID,1004.34,VALID,0,VALID,93.8963,VALID,0,VALID,23.9548,VALID,16,VALID,0,
2012-05-13, 00:28:04,VALID,1004.29,VALID,0,VALID,93.9954,VALID,0,VALID,23.9937,VALID,31,VALID,0,
2012-05-13, 00:29:04,VALID,1004.3,VALID,0,VALID,93.9344,VALID,0,VALID,23.9742,VALID,42,VALID,0,
2012-05-13, 00:30:04,VALID,1004.28,VALID,0,VALID,93.8429,VALID,0,VALID,23.9742,VALID,44,VALID,0,
2012-05-13, 00:31:04,VALID,1004.27,VALID,0,VALID,93.7589,VALID,0,VALID,23.9548,VALID,44,VALID,0,
2012-05-13, 00:32:04,VALID,1004.28,VALID,0,VALID,93.7513,VALID,0,VALID,23.9566,VALID,44,VALID,0,
2012-05-13, 00:33:04,VALID,1004.3,VALID,0,VALID,93.7895,VALID,0,VALID,23.9548,VALID,49,VALID,0,
2012-05-13, 00:34:04,VALID,1004.28,VALID,0,VALID,93.8352,VALID,0,VALID,23.9548,VALID,49,VALID,0,
2012-05-13, 00:35:04,VALID,1004.28,VALID,0,VALID,93.942,VALID,0,VALID,24.015,VALID,49,VALID,0,
2012-05-13, 00:36:04,VALID,1004.23,VALID,0,VALID,94.0107,VALID,0,VALID,24.0326,VALID,49,VALID,0,
2012-05-13, 00:37:04,VALID,1004.22,VALID,0,VALID,94.0641,VALID,0,VALID,24.0929,VALID,57,VALID,0,
2012-05-13, 00:38:04,VALID,1004.22,VALID,0,VALID,94.0565,VALID,0,VALID,24.1105,VALID,57,VALID,0,
2012-05-13, 00:39:04,VALID,1004.19,VALID,0,VALID,93.9802,VALID,0,VALID,24.1123,VALID,57,VALID,0,
2012-05-13, 00:40:04,VALID,1004.17,VALID,0,VALID,93.9039,VALID,0,VALID,24.1513,VALID,57,VALID,0,
2012-05-13, 00:41:04,VALID,1004.17,VALID,0,VALID,93.9725,VALID,0,VALID,24.2097,VALID,78,VALID,0.378516,
2012-05-13, 00:42:04,VALID,1004.17,VALID,0,VALID,93.9115,VALID,0,VALID,24.2273,VALID,78,VALID,0.489453,
2012-05-13, 00:43:04,VALID,1004.15,VALID,0,VALID,93.8123,VALID,0,VALID,24.2875,VALID,79,VALID,0.215625,
2012-05-13, 00:44:04,VALID,1004.14,VALID,0,VALID,93.5072,VALID,0,VALID,24.2468,VALID,76,VALID,0.476563,
2012-05-13, 00:45:04,VALID,1004.12,VALID,0,VALID,93.1563,VALID,0,VALID,24.2291,VALID,76,VALID,0.278125,
2012-05-13, 00:46:04,VALID,1004.11,VALID,0,VALID,93.2249,VALID,0,VALID,24.2681,VALID,78,VALID,0.41875,
2012-05-13, 00:47:04,VALID,1004.12,VALID,0,VALID,93.0571,VALID,0,VALID,24.2486,VALID,77,VALID,0.215234,
2012-05-13, 00:48:04,VALID,1004.08,VALID,0,VALID,92.935,VALID,0,VALID,24.2291,VALID,77,VALID,0.116406,
2012-05-13, 00:49:04,VALID,1004.07,VALID,0,VALID,92.8816,VALID,0,VALID,24.2097,VALID,77,VALID,0,
2012-05-13, 00:50:04,VALID,1004.06,VALID,0,VALID,92.9655,VALID,0,VALID,24.2291,VALID,48,VALID,0.373828,
2012-05-13, 00:51:04,VALID,1004.07,VALID,0,VALID,93.1181,VALID,0,VALID,24.2291,VALID,48,VALID,0.262109,
2012-05-13, 00:52:04,VALID,1004.04,VALID,0,VALID,93.1029,VALID,0,VALID,24.2486,VALID,48,VALID,0,
2012-05-13, 00:53:04,VALID,1004.01,VALID,0,VALID,93.0113,VALID,0,VALID,24.2078,VALID,48,VALID,0.303906,
2012-05-13, 00:54:04,VALID,1004.03,VALID,0,VALID,92.9808,VALID,0.0815089,VALID,24.2273,VALID,48,VALID,0,
2012-05-13, 00:55:04,VALID,1004.03,VALID,0,VALID,92.9961,VALID,0,VALID,24.2078,VALID,48,VALID,0,
2012-05-13, 00:56:04,VALID,1004.03,VALID,0,VALID,93.0266,VALID,0,VALID,24.2078,VALID,48,VALID,0,
2012-05-13, 00:57:04,VALID,1004.05,VALID,0,VALID,93.1181,VALID,0.0815089,VALID,24.2273,VALID,48,VALID,0,
2012-05-13, 00:58:04,VALID,1004.01,VALID,0,VALID,93.1868,VALID,0,VALID,24.2486,VALID,48,VALID,0,
2012-05-13, 00:59:04,VALID,1004.02,VALID,0,VALID,93.4156,VALID,0,VALID,24.2857,VALID,48,VALID,0.358984,
2012-05-13, 01:00:04,VALID,1004.01,VALID,0,VALID,93.3851,VALID,0.0815089,VALID,24.3246,VALID,48,VALID,0.009375,
2012-05-13, 01:01:04,VALID,1004.01,VALID,0,VALID,93.3317,VALID,0,VALID,24.3441,VALID,48,VALID,0.0910156,
2012-05-13, 01:02:04,VALID,1003.98,VALID,0,VALID,93.2478,VALID,0,VALID,24.4043,VALID,48,VALID,0,
2012-05-13, 01:03:04,VALID,1003.98,VALID,0,VALID,93.0342,VALID,0,VALID,24.4025,VALID,48,VALID,0,
2012-05-13, 01:04:04,VALID,1003.98,VALID,0,VALID,92.9045,VALID,0,VALID,24.4025,VALID,48,VALID,0.134766,
2012-05-13, 01:05:04,VALID,1003.97,VALID,0,VALID,92.7443,VALID,0,VALID,24.4025,VALID,48,VALID,0,
2012-05-13, 01:06:04,VALID,1003.94,VALID,0,VALID,92.7901,VALID,0.0815089,VALID,24.4025,VALID,48,VALID,0,
2012-05-13, 01:07:04,VALID,1003.96,VALID,0,VALID,92.5612,VALID,0,VALID,24.4043,VALID,48,VALID,0.28125,
2012-05-13, 01:08:04,VALID,1003.98,VALID,0,VALID,92.7596,VALID,0.0815089,VALID,24.383,VALID,48,VALID,0.528516,
2012-05-13, 01:09:04,VALID,1003.98,VALID,0,VALID,92.5536,VALID,0,VALID,24.3867,VALID,48,VALID,0.460938,
2012-05-13, 01:10:04,VALID,1003.95,VALID,0,VALID,92.5841,VALID,0,VALID,24.3459,VALID,44,VALID,0.475391,
2012-05-13, 01:11:04,VALID,1003.96,VALID,0,VALID,92.7596,VALID,0,VALID,24.3654,VALID,42,VALID,0.486328,
2012-05-13, 01:12:04,VALID,1003.95,VALID,0,VALID,92.7443,VALID,0,VALID,24.3849,VALID,39,VALID,0.358594,
2012-05-13, 01:13:04,VALID,1003.95,VALID,0,VALID,92.7138,VALID,0,VALID,24.4451,VALID,34,VALID,0.692969,
2012-05-13, 01:14:04,VALID,1003.94,VALID,0,VALID,92.5917,VALID,0,VALID,24.4822,VALID,23,VALID,0.771484,
2012-05-13, 01:15:04,VALID,1003.94,VALID,0,VALID,92.4925,VALID,0,VALID,24.5796,VALID,16,VALID,0.804297,
2012-05-13, 01:16:04,VALID,1003.91,VALID,0,VALID,91.9585,VALID,0,VALID,24.6983,VALID,38,VALID,0.755859,
2012-05-13, 01:17:04,VALID,1003.9,VALID,0,VALID,91.4016,VALID,0,VALID,24.7353,VALID,40,VALID,0.542188,
2012-05-13, 01:18:04,VALID,1003.88,VALID,0,VALID,91.2338,VALID,0,VALID,24.7529,VALID,20,VALID,0.45,
2012-05-13, 01:19:04,VALID,1003.88,VALID,0,VALID,91.1728,VALID,0,VALID,24.7956,VALID,20,VALID,0,
2012-05-13, 01:20:04,VALID,1003.86,VALID,0,VALID,91.0049,VALID,0,VALID,24.7743,VALID,20,VALID,0,
2012-05-13, 01:21:04,VALID,1003.83,VALID,0,VALID,90.9897,VALID,0,VALID,24.7937,VALID,20,VALID,0,
2012-05-13, 01:22:04,VALID,1003.83,VALID,0,VALID,91.1956,VALID,0,VALID,24.8735,VALID,19,VALID,0.491016,
2012-05-13, 01:23:04,VALID,1003.8,VALID,0,VALID,90.7226,VALID,0,VALID,24.8911,VALID,19,VALID,0.60625,
2012-05-13, 01:24:04,VALID,1003.81,VALID,0,VALID,90.5472,VALID,0,VALID,24.8911,VALID,19,VALID,0.198047,
2012-05-13, 01:25:04,VALID,1003.79,VALID,0,VALID,90.3793,VALID,0,VALID,24.8911,VALID,19,VALID,0,
2012-05-13, 01:26:04,VALID,1003.8,VALID,0,VALID,90.5167,VALID,0,VALID,24.8911,VALID,19,VALID,0,
2012-05-13, 01:27:04,VALID,1003.8,VALID,0,VALID,90.4327,VALID,0,VALID,24.8716,VALID,19,VALID,0,
2012-05-13, 01:28:04,VALID,1003.8,VALID,0,VALID,90.4862,VALID,0,VALID,24.8522,VALID,19,VALID,0,
2012-05-13, 01:29:04,VALID,1003.81,VALID,0,VALID,90.5319,VALID,0,VALID,24.854,VALID,19,VALID,0,
2012-05-13, 01:30:04,VALID,1003.84,VALID,0,VALID,90.5472,VALID,0,VALID,24.8132,VALID,19,VALID,0,
2012-05-13, 01:31:04,VALID,1003.84,VALID,0,VALID,90.6998,VALID,0,VALID,24.8151,VALID,19,VALID,0,
2012-05-13, 01:32:04,VALID,1003.83,VALID,0,VALID,90.7455,VALID,0,VALID,24.7956,VALID,19,VALID,0,
2012-05-13, 01:33:04,VALID,1003.82,VALID,0,VALID,90.9057,VALID,0,VALID,24.7548,VALID,19,VALID,0,
2012-05-13, 01:34:04,VALID,1003.84,VALID,0,VALID,91.2109,VALID,0,VALID,24.7335,VALID,42,VALID,0.374219,
2012-05-13, 01:35:04,VALID,1003.85,VALID,0,VALID,91.0812,VALID,0,VALID,24.7567,VALID,39,VALID,0.427734,
2012-05-13, 01:36:04,VALID,1003.83,VALID,0,VALID,91.2872,VALID,0,VALID,24.7353,VALID,15,VALID,0.601953,
2012-05-13, 01:37:04,VALID,1003.81,VALID,0,VALID,91.0202,VALID,0,VALID,24.7548,VALID,15,VALID,0.366406,
2012-05-13, 01:38:04,VALID,1003.81,VALID,0,VALID,91.1117,VALID,0,VALID,24.7353,VALID,17,VALID,0.340234,
2012-05-13, 01:39:04,VALID,1003.8,VALID,0,VALID,91.0965,VALID,0,VALID,24.7567,VALID,21,VALID,0.00585938,
2012-05-13, 01:40:04,VALID,1003.79,VALID,0,VALID,91.1346,VALID,0,VALID,24.7353,VALID,21,VALID,0,
2012-05-13, 01:41:04,VALID,1003.79,VALID,0,VALID,91.1422,VALID,0,VALID,24.7761,VALID,21,VALID,0,
2012-05-13, 01:42:04,VALID,1003.77,VALID,0,VALID,90.9591,VALID,0,VALID,24.7548,VALID,21,VALID,0,
2012-05-13, 01:43:04,VALID,1003.76,VALID,0,VALID,91.1041,VALID,0,VALID,24.7743,VALID,43,VALID,0.344922,
2012-05-13, 01:44:04,VALID,1003.74,VALID,0,VALID,90.86,VALID,0,VALID,24.7937,VALID,43,VALID,0.257422,
2012-05-13, 01:45:04,VALID,1003.74,VALID,0,VALID,90.7684,VALID,0,VALID,24.7937,VALID,43,VALID,0.236719,
2012-05-13, 01:46:04,VALID,1003.69,VALID,0,VALID,90.921,VALID,0,VALID,24.7937,VALID,43,VALID,0.263281,
2012-05-13, 01:47:04,VALID,1003.71,VALID,0,VALID,90.7989,VALID,0,VALID,24.8132,VALID,51,VALID,0.285937,
2012-05-13, 01:48:04,VALID,1003.68,VALID,0,VALID,90.6464,VALID,0,VALID,24.8522,VALID,51,VALID,0,
2012-05-13, 01:49:04,VALID,1003.7,VALID,0,VALID,90.5777,VALID,0,VALID,24.8113,VALID,18,VALID,0.065625,
2012-05-13, 01:50:04,VALID,1003.66,VALID,0,VALID,90.5243,VALID,0,VALID,24.8132,VALID,17,VALID,0,
2012-05-13, 01:51:04,VALID,1003.68,VALID,0,VALID,90.4862,VALID,0,VALID,24.8132,VALID,17,VALID,0,
2012-05-13, 01:52:04,VALID,1003.66,VALID,0,VALID,90.6769,VALID,0,VALID,24.8327,VALID,59,VALID,0,
2012-05-13, 01:53:04,VALID,1003.65,VALID,0,VALID,90.4862,VALID,0,VALID,24.8522,VALID,64,VALID,0,
2012-05-13, 01:54:04,VALID,1003.64,VALID,0,VALID,90.3183,VALID,0,VALID,24.8484,VALID,64,VALID,0,
2012-05-13, 01:55:04,VALID,1003.64,VALID,0,VALID,90.2802,VALID,0,VALID,24.8503,VALID,64,VALID,0,
2012-05-13, 01:56:04,VALID,1003.65,VALID,0,VALID,90.2344,VALID,0,VALID,24.8697,VALID,62,VALID,0.0289063,
2012-05-13, 01:57:04,VALID,1003.64,VALID,0,VALID,90.4099,VALID,0,VALID,24.9106,VALID,75,VALID,0.488672,
2012-05-13, 01:58:04,VALID,1003.62,VALID,0,VALID,89.975,VALID,0,VALID,24.8697,VALID,74,VALID,0.0195313,
2012-05-13, 01:59:04,VALID,1003.62,VALID,0,VALID,89.9674,VALID,0,VALID,24.8308,VALID,74,VALID,0,
2012-05-13, 02:00:04,VALID,1003.62,VALID,0,VALID,90.1352,VALID,0,VALID,24.8113,VALID,74,VALID,0,
2012-05-13, 02:01:04,VALID,1003.61,VALID,0,VALID,90.1734,VALID,0,VALID,24.7919,VALID,74,VALID,0,
2012-05-13, 02:02:04,VALID,1003.64,VALID,0,VALID,90.2878,VALID,0,VALID,24.7724,VALID,74,VALID,0,
2012-05-13, 02:03:04,VALID,1003.6,VALID,0,VALID,90.5014,VALID,0,VALID,24.7335,VALID,74,VALID,0,
2012-05-13, 02:04:04,VALID,1003.56,VALID,0,VALID,90.4633,VALID,0,VALID,24.6945,VALID,74,VALID,0,
2012-05-13, 02:05:04,VALID,1003.54,VALID,0,VALID,90.6082,VALID,0.0815089,VALID,24.7353,VALID,54,VALID,0.196094,
2012-05-13, 02:06:04,VALID,1003.52,VALID,0,VALID,90.5548,VALID,0,VALID,24.7159,VALID,54,VALID,0,
2012-05-13, 02:07:04,VALID,1003.5,VALID,0,VALID,90.86,VALID,0.0815089,VALID,24.6556,VALID,54,VALID,0,
2012-05-13, 02:08:04,VALID,1003.48,VALID,0,VALID,90.9363,VALID,0,VALID,24.6556,VALID,54,VALID,0,
2012-05-13, 02:09:04,VALID,1003.45,VALID,0,VALID,90.9897,VALID,0,VALID,24.6361,VALID,54,VALID,0,
2012-05-13, 02:10:04,VALID,1003.48,VALID,0,VALID,91.0278,VALID,0,VALID,24.6166,VALID,54,VALID,0,
2012-05-13, 02:11:04,VALID,1003.42,VALID,0,VALID,90.9668,VALID,0,VALID,24.5972,VALID,54,VALID,0,
2012-05-13, 02:12:04,VALID,1003.42,VALID,0,VALID,91.127,VALID,0,VALID,24.5777,VALID,54,VALID,0,
2012-05-13, 02:13:04,VALID,1003.41,VALID,0,VALID,91.2796,VALID,0,VALID,24.5582,VALID,54,VALID,0,
2012-05-13, 02:14:04,VALID,1003.4,VALID,0,VALID,91.4245,VALID,0,VALID,24.5601,VALID,54,VALID,0,
2012-05-13, 02:15:04,VALID,1003.4,VALID,0,VALID,91.5466,VALID,0,VALID,24.4998,VALID,54,VALID,0,
2012-05-13, 02:16:04,VALID,1003.4,VALID,0,VALID,91.7678,VALID,0,VALID,24.5406,VALID,54,VALID,0,
2012-05-13, 02:17:04,VALID,1003.35,VALID,0,VALID,91.7907,VALID,0,VALID,24.5193,VALID,54,VALID,0,
2012-05-13, 02:18:04,VALID,1003.34,VALID,0,VALID,92.0653,VALID,0,VALID,24.5777,VALID,78,VALID,0.180859,
2012-05-13, 02:19:04,VALID,1003.32,VALID,0,VALID,91.9051,VALID,0.0815089,VALID,24.5777,VALID,78,VALID,0.00546875,
2012-05-13, 02:20:04,VALID,1003.29,VALID,0,VALID,91.8822,VALID,0,VALID,24.6166,VALID,78,VALID,0,
2012-05-13, 02:21:04,VALID,1003.28,VALID,0,VALID,91.6915,VALID,0.0815089,VALID,24.5972,VALID,78,VALID,0,
2012-05-13, 02:22:04,VALID,1003.24,VALID,0,VALID,91.6,VALID,0,VALID,24.5972,VALID,78,VALID,0,
2012-05-13, 02:23:04,VALID,1003.19,VALID,0,VALID,91.1804,VALID,0,VALID,24.5582,VALID,78,VALID,0,
2012-05-13, 02:24:04,VALID,1003.19,VALID,0,VALID,91.1499,VALID,0,VALID,24.5017,VALID,78,VALID,0,
2012-05-13, 02:25:04,VALID,1003.18,VALID,0,VALID,91.3253,VALID,0,VALID,24.4841,VALID,78,VALID,0,
2012-05-13, 02:26:04,VALID,1003.15,VALID,0,VALID,91.5923,VALID,0,VALID,24.4628,VALID,78,VALID,0,
2012-05-13, 02:27:04,VALID,1003.18,VALID,0,VALID,91.5923,VALID,0,VALID,24.4433,VALID,78,VALID,0,
2012-05-13, 02:28:04,VALID,1003.18,VALID,0,VALID,91.6839,VALID,0,VALID,24.4451,VALID,78,VALID,0,
2012-05-13, 02:29:04,VALID,1003.17,VALID,0,VALID,91.661,VALID,0,VALID,24.4238,VALID,78,VALID,0,
2012-05-13, 02:30:04,VALID,1003.16,VALID,0,VALID,91.9814,VALID,0,VALID,24.4646,VALID,78,VALID,0,
2012-05-13, 02:31:04,VALID,1003.14,VALID,0,VALID,92.134,VALID,0,VALID,24.4822,VALID,78,VALID,0,
2012-05-13, 02:32:04,VALID,1003.15,VALID,0,VALID,92.1111,VALID,0,VALID,24.523,VALID,78,VALID,0,
2012-05-13, 02:33:04,VALID,1003.15,VALID,0,VALID,92.0806,VALID,0,VALID,24.5212,VALID,78,VALID,0,
2012-05-13, 02:34:04,VALID,1003.13,VALID,0,VALID,91.4779,VALID,0,VALID,24.5035,VALID,73,VALID,0.423047,
2012-05-13, 02:35:04,VALID,1003.14,VALID,0,VALID,91.1117,VALID,0,VALID,24.4043,VALID,70,VALID,0.268359,
2012-05-13, 02:36:04,VALID,1003.14,VALID,0,VALID,91.0736,VALID,0,VALID,24.3283,VALID,70,VALID,0.462109,
2012-05-13, 02:37:04,VALID,1003.16,VALID,0,VALID,91.5084,VALID,0,VALID,24.2486,VALID,70,VALID,0.0515625,
2012-05-13, 02:38:04,VALID,1003.16,VALID,0,VALID,91.661,VALID,0,VALID,24.1707,VALID,70,VALID,0,
2012-05-13, 02:39:04,VALID,1003.18,VALID,0,VALID,92.2027,VALID,0,VALID,24.1476,VALID,70,VALID,0.289844,
2012-05-13, 02:40:04,VALID,1003.18,VALID,0,VALID,92.5536,VALID,0,VALID,24.1884,VALID,70,VALID,0.109766,
2012-05-13, 02:41:04,VALID,1003.16,VALID,0,VALID,92.9426,VALID,0,VALID,24.2681,VALID,70,VALID,0.289844,
2012-05-13, 02:42:04,VALID,1003.17,VALID,0,VALID,92.8282,VALID,0,VALID,24.307,VALID,70,VALID,0,
2012-05-13, 02:43:04,VALID,1003.19,VALID,0,VALID,92.5078,VALID,0,VALID,24.2662,VALID,70,VALID,0,
2012-05-13, 02:44:04,VALID,1003.17,VALID,0,VALID,92.2637,VALID,0,VALID,24.2468,VALID,70,VALID,0,
2012-05-13, 02:45:04,VALID,1003.16,VALID,0,VALID,92.073,VALID,0,VALID,24.1884,VALID,70,VALID,0,
2012-05-13, 02:46:04,VALID,1003.14,VALID,0,VALID,92.34,VALID,0,VALID,24.2291,VALID,63,VALID,0,
2012-05-13, 02:47:04,VALID,1003.13,VALID,0,VALID,92.2789,VALID,0,VALID,24.1476,VALID,63,VALID,0,
2012-05-13, 02:48:04,VALID,1003.1,VALID,0,VALID,92.2332,VALID,0,VALID,24.1513,VALID,59,VALID,0,
2012-05-13, 02:49:04,VALID,1003.1,VALID,0,VALID,92.2027,VALID,0,VALID,24.091,VALID,58,VALID,0,
2012-05-13, 02:50:04,VALID,1003.08,VALID,0,VALID,92.7672,VALID,0,VALID,24.1123,VALID,35,VALID,0,
2012-05-13, 02:51:04,VALID,1003.06,VALID,0,VALID,92.4544,VALID,0,VALID,24.0716,VALID,35,VALID,0,
2012-05-13, 02:52:04,VALID,1003.11,VALID,0,VALID,92.6985,VALID,0,VALID,24.0539,VALID,35,VALID,0,
2012-05-13, 02:53:04,VALID,1003.09,VALID,0,VALID,92.8282,VALID,0,VALID,24.0734,VALID,35,VALID,0,
2012-05-13, 02:54:04,VALID,1003.12,VALID,0,VALID,92.9655,VALID,0,VALID,24.0734,VALID,35,VALID,0,
2012-05-13, 02:55:04,VALID,1003.12,VALID,0,VALID,93.3241,VALID,0,VALID,24.13,VALID,49,VALID,0,
2012-05-13, 02:56:04,VALID,1003.09,VALID,0,VALID,93.4614,VALID,0,VALID,24.2486,VALID,56,VALID,0,
2012-05-13, 02:57:04,VALID,1003.1,VALID,0,VALID,93.4004,VALID,0,VALID,24.307,VALID,56,VALID,0,
2012-05-13, 02:58:04,VALID,1003.1,VALID,0,VALID,93.1944,VALID,0,VALID,24.3654,VALID,25,VALID,0.125391,
2012-05-13, 02:59:04,VALID,1003.07,VALID,0,VALID,93.0571,VALID,0,VALID,24.4822,VALID,74,VALID,0.326953,
2012-05-13, 03:00:04,VALID,1003.06,VALID,0,VALID,92.8206,VALID,0,VALID,24.5212,VALID,84,VALID,0.690234,
2012-05-13, 03:01:04,VALID,1003.04,VALID,0,VALID,92.5307,VALID,0,VALID,24.6593,VALID,58,VALID,0.524609,
2012-05-13, 03:02:04,VALID,1003.03,VALID,0,VALID,91.989,VALID,0,VALID,24.714,VALID,69,VALID,0.5125,
2012-05-13, 03:03:04,VALID,1003.02,VALID,0,VALID,91.4855,VALID,0,VALID,24.7919,VALID,71,VALID,0.425781,
2012-05-13, 03:04:04,VALID,1003.02,VALID,0,VALID,91.0431,VALID,0,VALID,24.8716,VALID,73,VALID,0.371875,
2012-05-13, 03:05:04,VALID,1003,VALID,0,VALID,90.6845,VALID,0,VALID,24.8892,VALID,56,VALID,0.408984,
2012-05-13, 03:06:04,VALID,1003.02,VALID,0,VALID,90.2191,VALID,0,VALID,24.9671,VALID,74,VALID,0.717578,
2012-05-13, 03:07:04,VALID,1003,VALID,0,VALID,89.6012,VALID,0,VALID,25.0663,VALID,71,VALID,0.336719,
2012-05-13, 03:08:04,VALID,1002.98,VALID,0,VALID,89.2198,VALID,0,VALID,25.1053,VALID,71,VALID,0,
2012-05-13, 03:09:04,VALID,1002.97,VALID,0,VALID,89.0672,VALID,0,VALID,25.0839,VALID,71,VALID,0,
2012-05-13, 03:10:04,VALID,1002.97,VALID,0,VALID,89.0672,VALID,0.0815089,VALID,25.0839,VALID,71,VALID,0,
2012-05-13, 03:11:04,VALID,1002.95,VALID,0,VALID,89.0443,VALID,0,VALID,25.0839,VALID,71,VALID,0,
2012-05-13, 03:12:04,VALID,1002.93,VALID,0,VALID,88.9299,VALID,0,VALID,25.1248,VALID,72,VALID,0,
2012-05-13, 03:13:04,VALID,1002.92,VALID,0,VALID,88.8612,VALID,0,VALID,25.1034,VALID,72,VALID,0,
2012-05-13, 03:14:04,VALID,1002.88,VALID,0,VALID,88.7773,VALID,0,VALID,25.1248,VALID,72,VALID,0,
2012-05-13, 03:15:04,VALID,1002.87,VALID,0,VALID,88.8002,VALID,0,VALID,25.1053,VALID,72,VALID,0,
2012-05-13, 03:16:04,VALID,1002.87,VALID,0,VALID,88.9909,VALID,0,VALID,25.1229,VALID,71,VALID,0.508984,
2012-05-13, 03:17:04,VALID,1002.86,VALID,0,VALID,88.6247,VALID,0,VALID,25.2027,VALID,105,VALID,0.333594,
2012-05-13, 03:18:04,VALID,1002.84,VALID,0,VALID,88.5484,VALID,0,VALID,25.2007,VALID,103,VALID,0.689844,
2012-05-13, 03:19:04,VALID,1002.82,VALID,0,VALID,88.3119,VALID,0,VALID,25.1599,VALID,103,VALID,0,
2012-05-13, 03:20:04,VALID,1002.84,VALID,0,VALID,88.2814,VALID,0,VALID,25.2027,VALID,79,VALID,0.414063,
2012-05-13, 03:21:04,VALID,1002.87,VALID,0,VALID,88.1822,VALID,0,VALID,25.2221,VALID,89,VALID,0,
2012-05-13, 03:22:04,VALID,1002.85,VALID,0,VALID,88.0602,VALID,0,VALID,25.1813,VALID,71,VALID,0,
2012-05-13, 03:23:04,VALID,1002.85,VALID,0,VALID,88.167,VALID,0.0815089,VALID,25.1813,VALID,71,VALID,0,
2012-05-13, 03:24:04,VALID,1002.85,VALID,0,VALID,88.4492,VALID,0.0815089,VALID,25.1813,VALID,75,VALID,1.14531,
2012-05-13, 03:25:04,VALID,1002.83,VALID,0,VALID,88.0983,VALID,0.0815089,VALID,25.2202,VALID,80,VALID,0,
2012-05-13, 03:26:04,VALID,1002.82,VALID,0,VALID,88.167,VALID,0.0815089,VALID,25.1794,VALID,76,VALID,0,
2012-05-13, 03:27:04,VALID,1002.79,VALID,0,VALID,88.2661,VALID,0.0815089,VALID,25.1813,VALID,76,VALID,0,
2012-05-13, 03:28:04,VALID,1002.78,VALID,0,VALID,88.3958,VALID,0.0815089,VALID,25.1423,VALID,80,VALID,0,
2012-05-13, 03:29:04,VALID,1002.78,VALID,0,VALID,88.6323,VALID,0,VALID,25.121,VALID,83,VALID,0.697266,
2012-05-13, 03:30:04,VALID,1002.78,VALID,0,VALID,88.5713,VALID,0.0815089,VALID,25.1423,VALID,88,VALID,0.461328,
2012-05-13, 03:31:04,VALID,1002.8,VALID,0,VALID,88.5332,VALID,0,VALID,25.1015,VALID,88,VALID,0.527734,
2012-05-13, 03:32:04,VALID,1002.77,VALID,0,VALID,88.6094,VALID,0,VALID,25.1248,VALID,86,VALID,0.537109,
2012-05-13, 03:33:04,VALID,1002.76,VALID,0,VALID,88.6705,VALID,0.0815089,VALID,25.0839,VALID,84,VALID,0.0886719,
2012-05-13, 03:34:04,VALID,1002.77,VALID,0,VALID,88.8078,VALID,0,VALID,25.0839,VALID,84,VALID,0.466406,
2012-05-13, 03:35:04,VALID,1002.75,VALID,0,VALID,88.8002,VALID,0.0815089,VALID,25.0644,VALID,84,VALID,0.333984,
2012-05-13, 03:36:04,VALID,1002.76,VALID,0,VALID,88.8917,VALID,0,VALID,25.045,VALID,84,VALID,0.18125,
2012-05-13, 03:37:04,VALID,1002.73,VALID,0,VALID,88.968,VALID,0.0815089,VALID,25.0255,VALID,84,VALID,0.360938,
2012-05-13, 03:38:04,VALID,1002.76,VALID,0,VALID,89.0748,VALID,0.0815089,VALID,24.9866,VALID,84,VALID,0.23125,
2012-05-13, 03:39:04,VALID,1002.74,VALID,0,VALID,89.1358,VALID,0.0815089,VALID,24.9476,VALID,84,VALID,0.241016,
2012-05-13, 03:40:04,VALID,1002.75,VALID,0,VALID,88.5789,VALID,0.0815089,VALID,24.8503,VALID,73,VALID,0.448828,
2012-05-13, 03:41:04,VALID,1002.8,VALID,0,VALID,88.8993,VALID,0,VALID,24.7724,VALID,73,VALID,0.439453,
2012-05-13, 03:42:04,VALID,1002.78,VALID,0,VALID,89.3723,VALID,0.0815089,VALID,24.6556,VALID,72,VALID,0.275391,
2012-05-13, 03:43:04,VALID,1002.79,VALID,0,VALID,89.7309,VALID,0,VALID,24.599,VALID,72,VALID,0.26875,
2012-05-13, 03:44:04,VALID,1002.8,VALID,0,VALID,89.8835,VALID,0.0815089,VALID,24.4804,VALID,71,VALID,0.535547,
2012-05-13, 03:45:04,VALID,1002.8,VALID,0,VALID,90.3793,VALID,0,VALID,24.4043,VALID,71,VALID,0.149609,
2012-05-13, 03:46:04,VALID,1002.81,VALID,0,VALID,91.0049,VALID,0,VALID,24.3636,VALID,71,VALID,0.0722656,
2012-05-13, 03:47:04,VALID,1002.8,VALID,0,VALID,91.1346,VALID,0,VALID,24.3246,VALID,68,VALID,0.235938,
2012-05-13, 03:48:04,VALID,1002.82,VALID,0,VALID,91.455,VALID,0,VALID,24.3246,VALID,68,VALID,0.009375,
2012-05-13, 03:49:04,VALID,1002.88,VALID,0,VALID,91.4703,VALID,0.0815089,VALID,24.3441,VALID,68,VALID,0,
2012-05-13, 03:50:04,VALID,1002.86,VALID,0,VALID,91.3024,VALID,0.0815089,VALID,24.2839,VALID,68,VALID,0,
2012-05-13, 03:51:04,VALID,1002.87,VALID,0,VALID,91.3253,VALID,0.0815089,VALID,24.2255,VALID,68,VALID,0,
2012-05-13, 03:52:04,VALID,1002.89,VALID,0,VALID,91.3406,VALID,0.0815089,VALID,24.2078,VALID,68,VALID,0,
2012-05-13, 03:53:04,VALID,1002.9,VALID,0,VALID,91.4703,VALID,0.0815089,VALID,24.1689,VALID,68,VALID,0,